Time,TemperatureF,DewpointF,PressureIn,WindDirection,WindDirectionDegrees,WindSpeedMPH,WindSpeedGustMPH,Humidity,HourlyPrecipIn,Conditions,Clouds,dailyrainin,SoftwareType,DateUTC
2013-02-19 00:00:00,21.9,7.4,28.88,SE,131,0.0,26.2,53,0.00,,BKN200,0.00,VWS V14.01,2013-02-19 06:00:00,
2013-02-19 00:15:00,21.6,6.7,28.91,East,84,12.1,45.0,52,0.00,,,0.00,VWS V14.01,2013-02-19 06:15:00,
2013-02-19 00:30:00,20.8,5.6,28.91,NE,44,16.8,32.2,51,0.00,,,0.00,VWS V14.01,2013-02-19 06:30:00,
2013-02-19 00:45:00,19.9,4.3,28.91,NE,51,24.8,40.9,50,0.00,,,0.00,VWS V14.01,2013-02-19 06:45:00,
2013-02-19 01:00:00,18.3,3.2,28.91,West,272,0.0,24.8,51,0.00,,,0.00,VWS V14.01,2013-02-19 07:00:00,
2013-02-19 01:15:00,18.0,2.5,28.94,North,5,19.5,29.5,50,0.00,,,0.00,VWS V14.01,2013-02-19 07:15:00,
2013-02-19 01:30:00,17.4,1.1,28.94,SE,128,0.0,28.2,48,0.00,,,0.00,VWS V14.01,2013-02-19 07:30:00,
2013-02-19 01:45:00,16.5,1.1,28.94,SE,134,0.0,36.2,50,0.00,,,0.00,VWS V14.01,2013-02-19 07:45:00,
2013-02-19 02:00:00,16.0,0.6,28.94,East,99,0.0,30.9,50,0.00,,,0.00,VWS V14.01,2013-02-19 08:00:00,
2013-02-19 02:15:00,15.4,0.6,28.94,NNE,21,10.7,26.8,51,0.00,,FEW028,0.00,VWS V14.01,2013-02-19 08:15:00,
2013-02-19 02:30:00,14.9,-0.8,28.97,East,82,18.1,32.2,49,0.00,,FEW028,0.00,VWS V14.01,2013-02-19 08:30:00,
2013-02-19 02:45:00,14.2,-0.6,28.97,NNW,342,0.0,37.6,51,0.00,,FEW028,0.00,VWS V14.01,2013-02-19 08:45:00,
2013-02-19 03:00:00,13.5,-0.5,28.97,ENE,72,8.1,20.8,53,0.00,,FEW028,0.00,VWS V14.01,2013-02-19 09:00:00,
2013-02-19 03:15:00,12.9,-1.0,28.97,East,101,0.0,26.8,53,0.00,,FEW028,0.00,VWS V14.01,2013-02-19 09:15:00,
2013-02-19 03:30:00,12.6,-1.3,28.97,ENE,63,0.0,24.8,53,0.00,,FEW028,0.00,VWS V14.01,2013-02-19 09:30:00,
2013-02-19 03:45:00,12.0,-1.8,29.00,NE,52,0.0,26.8,53,0.00,,FEW028,0.00,VWS V14.01,2013-02-19 09:45:00,
2013-02-19 04:00:00,11.5,-2.3,29.00,ENE,77,0.0,20.8,53,0.00,,FEW028,0.00,VWS V14.01,2013-02-19 10:00:00,
2013-02-19 04:15:00,11.1,-2.7,29.00,ENE,70,0.0,34.9,53,0.00,,FEW027,0.00,VWS V14.01,2013-02-19 10:15:00,
2013-02-19 04:30:00,10.8,-3.0,29.00,SSE,166,0.0,22.1,53,0.00,,FEW027,0.00,VWS V14.01,2013-02-19 10:30:00,
2013-02-19 04:45:00,10.4,-3.3,29.00,NE,39,16.8,26.8,53,0.00,,FEW027,0.00,VWS V14.01,2013-02-19 10:45:00,
2013-02-19 05:00:00,10.2,-3.5,29.00,East,93,8.1,24.8,53,0.00,,FEW027,0.00,VWS V14.01,2013-02-19 11:00:00,
2013-02-19 05:15:00,10.0,-3.7,29.03,East,99,0.0,26.2,53,0.00,,BKN025,0.00,VWS V14.01,2013-02-19 11:15:00,
2013-02-19 05:30:00,9.7,-4.0,29.03,ESE,102,0.0,26.8,53,0.00,,BKN025,0.00,VWS V14.01,2013-02-19 11:30:00,
2013-02-19 05:45:00,9.5,-4.2,29.03,ENE,59,0.0,29.5,53,0.00,,BKN025,0.00,VWS V14.01,2013-02-19 11:45:00,
2013-02-19 06:00:00,9.3,-4.3,29.03,ENE,66,10.7,32.2,53,0.00,,BKN025,0.00,VWS V14.01,2013-02-19 12:00:00,
2013-02-19 06:15:00,9.1,-4.5,29.03,East,93,0.0,33.6,53,0.00,,OVC023,0.00,VWS V14.01,2013-02-19 12:15:00,
2013-02-19 06:30:00,9.1,-4.5,29.03,NE,56,16.8,29.5,53,0.00,,OVC023,0.00,VWS V14.01,2013-02-19 12:30:00,
2013-02-19 06:45:00,9.1,-4.5,29.03,NW,314,0.0,28.2,53,0.00,,OVC023,0.00,VWS V14.01,2013-02-19 12:45:00,
2013-02-19 07:00:00,8.8,-4.8,29.06,North,353,15.4,28.2,53,0.00,,OVC023,0.00,VWS V14.01,2013-02-19 13:00:00,
2013-02-19 07:15:00,8.6,-5.0,29.06,North,11,14.1,19.5,53,0.00,,SCT022,0.00,VWS V14.01,2013-02-19 13:15:00,
2013-02-19 07:30:00,8.6,-5.0,29.06,ENE,67,0.0,26.2,53,0.00,,SCT022,0.00,VWS V14.01,2013-02-19 13:30:00,
2013-02-19 07:45:00,8.6,-5.0,29.09,SE,143,0.0,20.8,53,0.00,,SCT022,0.00,VWS V14.01,2013-02-19 13:45:00,
2013-02-19 08:00:00,8.6,-5.0,29.09,NE,41,8.1,23.5,53,0.00,,SCT022,0.00,VWS V14.01,2013-02-19 14:00:00,
2013-02-19 08:15:00,8.6,-5.0,29.09,NW,324,13.4,24.8,53,0.00,,,0.00,VWS V14.01,2013-02-19 14:15:00,
2013-02-19 08:30:00,8.8,-4.8,29.12,NNW,329,16.8,40.9,53,0.00,,,0.00,VWS V14.01,2013-02-19 14:30:00,
2013-02-19 08:45:00,8.8,-4.8,29.12,ENE,61,19.5,33.6,53,0.00,,,0.00,VWS V14.01,2013-02-19 14:45:00,
2013-02-19 09:00:00,9.3,-4.3,29.12,SE,126,9.4,40.9,53,0.00,,,0.00,VWS V14.01,2013-02-19 15:00:00,
2013-02-19 09:15:00,9.5,-4.2,29.12,NE,48,23.5,32.2,53,0.00,,SCT027,0.00,VWS V14.01,2013-02-19 15:15:00,
2013-02-19 09:30:00,10.4,-3.3,29.12,NE,48,32.2,40.9,53,0.00,,SCT027,0.00,VWS V14.01,2013-02-19 15:30:00,
2013-02-19 09:45:00,10.6,-3.2,29.15,East,101,18.1,32.2,53,0.00,,SCT027,0.00,VWS V14.01,2013-02-19 15:45:00,
2013-02-19 10:00:00,11.7,-2.2,29.15,WSW,251,23.5,29.5,53,0.00,,SCT027,0.00,VWS V14.01,2013-02-19 16:00:00,
2013-02-19 10:15:00,12.2,-1.6,29.15,East,81,0.0,32.2,53,0.00,,SCT027,0.00,VWS V14.01,2013-02-19 16:15:00,
2013-02-19 10:30:00,13.3,-0.6,29.15,ENE,63,23.5,33.6,53,0.00,,SCT027,0.00,VWS V14.01,2013-02-19 16:30:00,
2013-02-19 10:45:00,14.2,-3.2,29.15,SE,141,12.1,30.9,45,0.00,,SCT027,0.00,VWS V14.01,2013-02-19 16:45:00,
2013-02-19 11:00:00,14.5,-3.4,29.15,ENE,67,14.1,42.3,44,0.00,,SCT027,0.00,VWS V14.01,2013-02-19 17:00:00,
2013-02-19 11:15:00,16.0,-2.1,29.15,ENE,76,0.0,28.2,44,0.00,,SCT027,0.00,VWS V14.01,2013-02-19 17:15:00,
2013-02-19 11:30:00,16.7,-1.4,29.15,ENE,74,9.4,26.2,44,0.00,,SCT027,0.00,VWS V14.01,2013-02-19 17:30:00,
2013-02-19 11:45:00,18.3,-0.4,29.15,East,80,18.1,29.5,43,0.00,,SCT027,0.00,VWS V14.01,2013-02-19 17:45:00,
2013-02-19 12:00:00,18.7,-0.6,29.15,ENE,71,18.1,32.2,42,0.00,,SCT027,0.00,VWS V14.01,2013-02-19 18:00:00,
2013-02-19 12:15:00,19.8,-0.1,29.15,East,79,19.5,26.2,41,0.00,,SCT027,0.00,VWS V14.01,2013-02-19 18:15:00,
2013-02-19 12:30:00,20.5,0.5,29.15,East,85,9.4,24.8,41,0.00,,SCT027,0.00,VWS V14.01,2013-02-19 18:30:00,
2013-02-19 12:45:00,21.4,0.3,29.15,ENE,74,8.1,32.2,39,0.00,,SCT027,0.00,VWS V14.01,2013-02-19 18:45:00,
2013-02-19 13:00:00,21.4,-0.8,29.15,ENE,73,0.0,36.2,37,0.00,,SCT027,0.00,VWS V14.01,2013-02-19 19:00:00,
2013-02-19 13:15:00,21.7,-0.5,29.15,SSW,208,8.1,33.6,37,0.00,,CLR,0.00,VWS V14.01,2013-02-19 19:15:00,
2013-02-19 13:30:00,21.7,-1.1,29.15,ENE,62,13.4,30.9,36,0.00,,CLR,0.00,VWS V14.01,2013-02-19 19:30:00,
2013-02-19 13:45:00,22.5,-0.4,29.12,ENE,63,9.4,34.9,36,0.00,,CLR,0.00,VWS V14.01,2013-02-19 19:45:00,
2013-02-19 14:00:00,23.0,-0.6,29.12,North,357,12.1,29.5,35,0.00,,CLR,0.00,VWS V14.01,2013-02-19 20:00:00,
2013-02-19 14:15:00,23.5,-0.7,29.12,ENE,63,0.0,33.6,34,0.00,,CLR,0.00,VWS V14.01,2013-02-19 20:15:00,
2013-02-19 14:30:00,23.5,-0.7,29.12,ESE,106,22.1,28.2,34,0.00,,CLR,0.00,VWS V14.01,2013-02-19 20:30:00,
2013-02-19 14:45:00,24.1,-0.9,29.12,ESE,108,0.0,29.5,33,0.00,,CLR,0.00,VWS V14.01,2013-02-19 20:45:00,
2013-02-19 15:00:00,23.7,-1.2,29.12,ENE,59,0.0,28.2,33,0.00,,CLR,0.00,VWS V14.01,2013-02-19 21:00:00,
2013-02-19 15:15:00,24.3,-0.7,29.12,SSE,155,0.0,30.9,33,0.00,,CLR,0.00,VWS V14.01,2013-02-19 21:15:00,
2013-02-19 15:30:00,24.8,-0.2,29.12,North,11,26.2,29.5,33,0.00,,CLR,0.00,VWS V14.01,2013-02-19 21:30:00,
2013-02-19 15:45:00,24.4,-0.5,29.12,East,84,0.0,28.2,33,0.00,,CLR,0.00,VWS V14.01,2013-02-19 21:45:00,
2013-02-19 16:00:00,24.6,-0.4,29.12,ENE,59,8.1,24.8,33,0.00,,CLR,0.00,VWS V14.01,2013-02-19 22:00:00,
2013-02-19 16:15:00,24.6,-0.4,29.12,ESE,110,0.0,26.2,33,0.00,,CLR,0.00,VWS V14.01,2013-02-19 22:15:00,
2013-02-19 16:30:00,24.1,-0.9,29.12,ENE,71,15.4,30.9,33,0.00,,CLR,0.00,VWS V14.01,2013-02-19 22:30:00,
2013-02-19 16:45:00,24.1,-0.9,29.12,ENE,72,20.8,24.8,33,0.00,,CLR,0.00,VWS V14.01,2013-02-19 22:45:00,
2013-02-19 17:00:00,23.5,-1.3,29.12,NNE,15,10.7,24.8,33,0.00,,CLR,0.00,VWS V14.01,2013-02-19 23:00:00,
2013-02-19 17:15:00,23.4,-1.5,29.12,ESE,111,0.0,24.8,33,0.00,,CLR,0.00,VWS V14.01,2013-02-19 23:15:00,
2013-02-19 17:30:00,23.0,-1.8,29.12,ESE,111,0.0,22.1,33,0.00,,CLR,0.00,VWS V14.01,2013-02-19 23:30:00,
2013-02-19 17:45:00,22.3,-2.4,29.12,ENE,65,0.0,26.8,33,0.00,,CLR,0.00,VWS V14.01,2013-02-19 23:45:00,
2013-02-19 18:00:00,21.6,-3.1,29.12,ENE,66,0.0,20.8,33,0.00,,CLR,0.00,VWS V14.01,2013-02-20 00:00:00,
2013-02-19 18:15:00,20.8,-3.1,29.12,East,97,0.0,20.8,34,0.00,,FEW250,0.00,VWS V14.01,2013-02-20 00:15:00,
2013-02-19 18:30:00,19.9,-3.9,29.12,East,92,0.0,24.8,34,0.00,,FEW250,0.00,VWS V14.01,2013-02-20 00:30:00,
2013-02-19 18:45:00,19.4,-4.4,29.12,ENE,65,0.0,18.1,34,0.00,,FEW250,0.00,VWS V14.01,2013-02-20 00:45:00,
2013-02-19 19:00:00,18.5,-4.6,29.15,NE,54,0.0,15.4,35,0.00,,FEW250,0.00,VWS V14.01,2013-02-20 01:00:00,
2013-02-19 19:15:00,17.8,-5.2,29.15,NE,53,0.0,16.8,35,0.00,,FEW250,0.00,VWS V14.01,2013-02-20 01:15:00,
2013-02-19 19:30:00,17.1,-4.7,29.12,ENE,74,0.0,13.4,37,0.00,,FEW250,0.00,VWS V14.01,2013-02-20 01:30:00,
2013-02-19 19:45:00,16.3,-4.8,29.15,NE,41,0.0,0.0,38,0.00,,FEW250,0.00,VWS V14.01,2013-02-20 01:45:00,
2013-02-19 20:00:00,15.8,-4.8,29.15,North,9,0.0,0.0,39,0.00,,FEW250,0.00,VWS V14.01,2013-02-20 02:00:00,
2013-02-19 20:15:00,15.3,-4.7,29.15,NE,36,0.0,0.0,40,0.00,,FEW250,0.00,VWS V14.01,2013-02-20 02:15:00,
2013-02-19 20:30:00,14.7,-4.7,29.15,NE,48,0.0,0.0,41,0.00,,FEW250,0.00,VWS V14.01,2013-02-20 02:30:00,
2013-02-19 20:45:00,14.4,-4.5,29.15,NNE,25,0.0,19.5,42,0.00,,FEW250,0.00,VWS V14.01,2013-02-20 02:45:00,
2013-02-19 21:00:00,14.2,-4.2,29.15,NNE,30,0.0,20.8,43,0.00,,FEW250,0.00,VWS V14.01,2013-02-20 03:00:00,
2013-02-19 21:15:00,13.6,-4.2,29.15,NW,306,0.0,16.8,44,0.00,,CLR,0.00,VWS V14.01,2013-02-20 03:15:00,
2013-02-19 21:30:00,12.9,-4.9,29.15,East,83,0.0,12.1,44,0.00,,CLR,0.00,VWS V14.01,2013-02-20 03:30:00,
2013-02-19 21:45:00,12.4,-5.4,29.18,NE,46,0.0,9.4,44,0.00,,CLR,0.00,VWS V14.01,2013-02-20 03:45:00,
2013-02-19 22:00:00,12.0,-5.7,29.18,NE,55,0.0,0.0,44,0.00,,CLR,0.00,VWS V14.01,2013-02-20 04:00:00,
2013-02-19 22:15:00,11.3,-6.4,29.18,NNE,19,0.0,0.0,44,0.00,,CLR,0.00,VWS V14.01,2013-02-20 04:15:00,
2013-02-19 22:30:00,10.0,-7.5,29.18,NNE,19,0.0,0.0,44,0.00,,CLR,0.00,VWS V14.01,2013-02-20 04:30:00,
2013-02-19 22:45:00,10.2,-7.3,29.18,NNE,25,0.0,0.0,44,0.00,,CLR,0.00,VWS V14.01,2013-02-20 04:45:00,
2013-02-19 23:00:00,10.6,-7.0,29.18,ENE,59,0.0,16.8,44,0.00,,CLR,0.00,VWS V14.01,2013-02-20 05:00:00,
2013-02-19 23:15:00,10.0,-7.5,29.21,NE,41,0.0,0.0,44,0.00,,CLR,0.00,VWS V14.01,2013-02-20 05:15:00,
2013-02-19 23:30:00,9.7,-7.8,29.21,ENE,68,0.0,0.0,44,0.00,,CLR,0.00,VWS V14.01,2013-02-20 05:30:00,
2013-02-19 23:45:00,9.3,-8.2,29.18,NNW,335,0.0,0.0,44,0.00,,CLR,0.00,VWS V14.01,2013-02-20 05:45:00,